This is the latest recevied weather packets stored in our database for station/object VK4TW-13. If no packets are shown the sender has not sent any weather packets the latest 10 day(s).
| Time | Temp. | Humidity | Pressure | Rain* | Wind** | Luminosity | Snow |
|---|---|---|---|---|---|---|---|
| 1788127695 | 21.11° C | 100% | 1027.1 hPa | 0 mm | - | - | - |
| 1788127095 | 20.56° C | 100% | 1027 hPa | 0 mm | - | - | - |
| 1788126914 | 20.56° C | 100% | 1026.9 hPa | 0 mm | - | - | - |
| 1788126733 | 20° C | 100% | 1027 hPa | 0 mm | - | - | - |
| 1788126263 | 19.44° C | 100% | 1026.8 hPa | 0 mm | - | - | - |
| 1788126082 | 19.44° C | 100% | 1026.9 hPa | 0 mm | - | - | - |
| 1788125790 | 19.44° C | 100% | 1026.7 hPa | 0 mm | - | - | - |
| 1788125189 | 18.33° C | 100% | 1026.7 hPa | 0 mm | - | - | - |
| 1788124895 | 18.33° C | 100% | 1026.7 hPa | 0 mm | - | - | - |
| 1788124584 | 17.78° C | 100% | 1026.6 hPa | 0 mm | - | - | - |
| 1788123988 | 17.22° C | 100% | 1026.6 hPa | 0 mm | - | - | - |
| 1788123659 | 17.22° C | 100% | 1026.5 hPa | 0 mm | - | - | - |
| 1788123293 | 17.22° C | 100% | 1026.5 hPa | 0 mm | - | - | - |
| 1788122692 | 16.67° C | 100% | 1026.3 hPa | 0 mm | - | - | - |
| 1788122091 | 16.67° C | 100% | 1026.2 hPa | 0 mm | - | - | - |
| 1788121490 | 16.67° C | 100% | 1026.1 hPa | 0 mm | - | - | - |
| 1788120889 | 16.67° C | 100% | 1025.9 hPa | 0 mm | - | - | - |
| 1788120288 | 16.67° C | 100% | 1025.8 hPa | 0 mm | - | - | - |
| 1788119687 | 16.67° C | 100% | 1025.7 hPa | 0 mm | - | - | - |
| 1788119087 | 16.67° C | 100% | 1025.7 hPa | 0 mm | - | - | - |
| 1788118725 | 16.67° C | 100% | 1025.7 hPa | 0 mm | - | - | - |
| 1788118293 | 16.67° C | 100% | 1025.6 hPa | 0 mm | - | - | - |
| 1788118124 | 16.67° C | 100% | 1025.6 hPa | 0 mm | - | - | - |
| 1788117522 | 16.67° C | 100% | 1025.4 hPa | 0 mm | - | - | - |
| 1788116921 | 16.67° C | 100% | 1025.4 hPa | 0 mm | - | - | - |
* Rain since midnight (hover to see other rain measurements)
** Current wind speed in m/s (hover to see current wind gust speed)